Overview Statistics Trail Chart Weather Telemetry Raw packets
 

This is the latest recevied weather packets stored in our database for station/object KE5QKR. If no packets are shown the sender has not sent any weather packets the latest 10 day(s).

<< 60 61 62 63 64 65 66 >>
Time Temp. Humidity Pressure Rain* Wind** Luminosity Snow
1777568370 21.11° C 99% 1010.6 hPa 0 mm - 114 W/m² -
1777568067 21.11° C 99% 1010.4 hPa 0 mm - 143 W/m² -
1777567763 20.56° C 99% 1010.6 hPa 0 mm - 127 W/m² -
1777567460 20.56° C 99% 1010.6 hPa 0 mm - 105 W/m² -
1777567158 20.56° C 99% 1011.4 hPa 0 mm - 105 W/m² -
1777566855 20.56° C 99% 1011.6 hPa 0 mm - 91 W/m² -
1777566553 20.56° C 99% 1011.7 hPa 0 mm - 47 W/m² -
1777566250 20.56° C 99% 1011.7 hPa 0 mm - 59 W/m² -
1777565947 20.56° C 99% 1011.8 hPa 0 mm - 56 W/m² -
1777565643 20.56° C 99% 1011.8 hPa 0 mm - 96 W/m² -
1777565340 20.56° C 99% 1011.7 hPa 0 mm - 173 W/m² -
1777565035 20.56° C 99% 1011.6 hPa 0 mm - 126 W/m² -
1777564731 20.56° C 99% 1011.5 hPa 0 mm - 146 W/m² -
1777564426 20.56° C 99% 1011.6 hPa 0 mm - 178 W/m² -
1777564122 20° C 99% 1011.4 hPa 0 mm - 202 W/m² -
1777563818 20° C 99% 1011.1 hPa 0 mm - 225 W/m² -
1777563515 20° C 99% 1011.3 hPa 0 mm - 228 W/m² -
1777563214 20° C 99% 1011.1 hPa 0 mm - 342 W/m² -
1777562911 20° C 99% 1011.2 hPa 0 mm - 264 W/m² -
1777562607 20° C 99% 1011.3 hPa 0 mm - 155 W/m² -
1777562306 20° C 99% 1011.2 hPa 0 mm - 131 W/m² -
1777562003 20° C 99% 1011.3 hPa 0 mm - 126 W/m² -
1777561700 20° C 99% 1011.3 hPa 0 mm - 120 W/m² -
1777561395 20° C 99% 1011.2 hPa 0 mm - 92 W/m² -
1777561091 20° C 99% 1011.4 hPa 0 mm - 87 W/m² -

* Rain latest hour (hover to see other rain measurements)
** Current wind speed in m/s (hover to see current wind gust speed)